カタリナ彗星

C/2021 U5 ( Catalina )

English version
Home page
Updated on May 16, 2022

---------------------------------------------------------------------

・ プロフィール

発見日 2021年10月29日
発見光度 19.1等
発見者 A. R. Gibbs (Catalina Sky Survey)

・ 写真集

・ 軌道要素

Epoch 2022 Jan. 21.0 TT = JDT 2459600.5
T 2022 Jan. 26.61277 TT                                 Rudenko
q   2.3632885            (2000.0)            P               Q
z  +0.0046129      Peri.  321.47135     -0.80464651     -0.59298135
 +/-0.0000005      Node   182.75530     +0.56491508     -0.78027031
e   0.9890984      Incl.   39.04930     -0.18279753     +0.19887525
From 398 observations 2021 Oct. 29-2022 Apr. 26, mean residual 0".5.

・ 光度変化

        m1 = 5.0 + 5 logΔ + 25.0 log r(t - 60)

---------------------------------------------------------------------

軌道要素はM.P.E.C. 2022-H122に掲載されたものです。
光度グラフはComet for Windowsで作成したものです。

---------------------------------------------------------------------

Copyright(C) Seiichi Yoshida (comet@aerith.net). All rights reserved.